SCP
1 1 1 1 0 0 0 0 0 0 0 0 0 0 0 0 0 0 0 0 0 0 0 0 0 0 0 0 0 0 0 0 0 0 0 0 0 0 0 0 0 0 0
1 1 1 1 0 0 0 0 0 0 0 0 0 0 0 0 0 0 0 0 0 0 0 0 0 0 0 0 0 0 0 0 0 0 0 0 0 0 0 0 0 0 0
1 1 1 1 1 0 0 0 0 0 0 0 0 0 0 0 0 0 0 0 0 0 0 0 0 0 0 0 0 0 0 0 0 0 0 0 0 0 0 0 0 0 0
1 1 1 1 1 1 0 0 0 0 0 0 0 0 0 0 0 0 0 0 0 0 0 0 0 0 0 0 0 0 0 0 0 0 0 0 0 0 0 0 0 0 0
1 1 1 1 1 1 1 0 0 0 0 0 0 0 0 0 0 0 0 0 0 0 0 0 0 0 0 0 0 0 0 0 0 0 0 0 0 0 0 0 0 0 0
1 1 1 1 1 1 1 0 0 0 0 0 0 0 0 0 0 0 0 0 0 0 0 0 0 0 0 0 0 0 0 0 0 0 0 0 0 0 0 0 0 0 0
1 1 1 1 1 1 1 0 0 0 0 0 0 0 0 0 0 0 0 0 0 0 0 0 0 0 0 0 0 0 0 0 0 0 0 0 0 0 0 0 0 0 0
1 1 1 1 1 1 1 1 0 0 0 0 0 0 0 0 0 0 0 0 0 0 0 0 0 0 0 0 0 0 0 0 0 0 0 0 0 0 0 0 0 0 0
1 1 1 1 1 1 1 1 1 0 0 0 0 0 0 0 0 0 0 0 0 0 0 0 0 0 0 0 0 0 0 0 0 0 0 0 0 0 0 0 0 0 0
1 1 1 1 1 1 1 1 0 0 0 0 0 0 0 0 0 0 0 0 0 0 0 0 0 0 0 0 0 0 0 0 0 0 0 0 0 0 0 0 0 0 0
1 1 1 1 1 1 0 0 0 0 0 0 0 0 0 0 0 0 0 0 0 0 0 0 0 0 0 0 0 0 0 0 0 0 0 0 0 0 0 0 0 0 0
1 1 1 1 1 0 0 0 0 0 0 0 0 0 0 0 0 0 0 0 0 0 0 0 0 0 0 0 0 0 0 0 0 0 0 0 0 0 0 0 0 0 0
1 1 1 1 1 1 0 0 0 0 0 0 0 0 0 0 0 0 0 0 0 0 0 0 0 0 0 0 0 0 0 0 0 0 0 0 0 0 0 0 0 0 0
1 1 1 1 1 1 1 0 0 0 0 0 0 0 0 0 0 0 0 0 0 0 0 0 0 0 0 0 0 0 0 0 0 0 0 0 0 0 0 0 0 0 0
1 1 1 1 1 1 1 0 0 0 0 0 0 0 0 0 0 0 0 0 0 0 0 0 0 0 0 0 0 0 0 0 0 0 0 0 0 0 0 0 0 0 0
1 1 1 1 1 1 1 1 0 0 0 0 0 0 0 0 0 0 0 0 0 0 0 0 0 0 0 0 0 0 0 0 0 0 0 0 0 0 0 0 0 0 0
1 1 1 1 1 1 1 1 1 1 1 1 1 1 1 0 0 0 0 0 0 0 0 0 0 0 0 0 0 0 0 0 0 0 0 0 0 0 0 0 0 0 0
0 1 1 1 1 1 1 1 1 1 1 1 1 1 1 1 1 1 1 1 0 0 0 0 0 0 0 0 0 0 0 0 0 0 0 0 0 0 0 0 0 0 0
0 0 1 1 1 1 1 1 1 1 1 1 1 1 1 1 1 1 1 1 1 0 0 0 0 0 0 0 0 0 0 0 0 0 0 0 0 0 0 0 0 0 0
0 0 0 1 1 1 1 2 2 2 2 1 1 1 1 1 1 1 1 1 1 1 1 1 0 0 0 0 0 0 0 0 0 0 0 0 0 0 0 0 0 0 0
0 0 0 0 1 1 1 2 2 2 2 2 2 2 1 1 1 1 2 2 2 1 1 1 1 0 0 0 0 0 0 0 0 0 0 0 0 0 0 0 0 0 0
0 0 0 0 0 0 1 1 2 2 2 2 2 2 2 2 1 1 2 2 2 2 1 1 1 1 0 0 0 0 0 0 0 0 0 0 0 0 0 0 0 0 0
0 0 0 0 0 0 0 1 1 2 2 2 2 2 2 2 2 1 1 2 2 2 2 1 1 1 1 0 0 0 0 0 0 0 0 0 0 0 0 0 0 0 0
0 0 0 0 0 0 0 0 1 1 1 1 2 2 2 2 1 1 1 2 2 2 2 2 2 1 1 1 1 0 0 0 0 0 0 0 0 0 0 0 0 0 0
0 0 0 0 0 0 0 0 0 0 1 1 1 1 1 1 1 1 1 2 2 2 3 3 2 2 2 2 1 1 0 0 0 0 0 0 0 0 0 0 0 0 0
0 0 0 0 0 0 0 0 0 0 0 0 0 1 1 1 1 1 2 2 2 2 3 3 3 3 2 2 2 1 0 0 0 0 0 0 0 0 0 0 0 0 0
Wind_Speed
10 13 16 15 15 14 14 13 13 12 12 12 12 11 9 8 8 7 8 8 9 11 13 14 14 14 14 14 14 14 13 13 12 12 12 12 11 10 10 10 8 8 10
14 15 15 15 14 14 14 13 13 12 12 12 11 10 9 7 7 7 8 9 10 12 13 14 14 14 13 13 13 12 11 10 9 10 9 9 9 9 10 12 12 7 10
16 15 14 14 14 14 14 14 14 13 13 12 11 9 8 7 7 8 9 10 11 13 14 14 14 13 13 12 12 11 9 6 5 3 3 4 6 9 9 9 9 9 9
16 13 13 14 14 14 15 15 14 14 13 12 10 9 8 8 9 10 11 11 13 13 14 14 13 13 12 11 10 9 6 3 2 4 1 5 6 8 9 8 9 9 9
14 12 14 14 14 15 16 15 14 14 13 11 10 9 8 10 11 12 13 13 14 13 13 13 12 11 11 10 9 7 4 4 6 4 5 7 6 9 11 10 10 10 10
13 13 13 13 14 15 15 15 14 13 12 11 10 9 9 11 13 13 14 13 13 12 12 11 11 10 9 9 8 5 4 6 6 3 7 7 6 11 13 13 13 13 13
14 14 12 13 14 14 14 14 14 13 12 11 10 9 10 11 12 13 12 12 12 11 11 10 9 8 8 7 6 3 5 7 2 7 8 7 8 14 14 15 15 15 15
14 13 12 13 13 13 13 13 13 13 12 11 9 9 9 10 11 11 11 10 10 10 9 9 8 7 6 6 4 2 5 6 5 9 8 6 10 13 13 13 13 13 13
14 13 10 9 10 12 12 11 12 12 11 10 9 8 8 9 9 9 9 9 9 9 8 8 7 6 5 4 3 1 4 6 3 4 9 5 10 12 12 12 12 12 12
10 12 10 9 8 8 8 10 11 11 11 10 9 9 9 8 8 8 7 7 7 8 8 7 7 6 5 4 3 1 4 6 1 6 5 6 11 11 10 10 11 11 11
5 8 9 9 9 9 8 9 9 10 10 10 8 10 9 5 6 6 7 7 6 7 7 7 7 6 5 4 3 3 4 3 1 5 5 9 10 9 9 9 9 10 10
1 3 4 7 7 7 8 8 6 6 7 6 6 7 5 5 6 8 10 9 7 7 7 7 7 7 5 3 4 3 3 4 2 5 6 12 10 9 8 8 8 8 9
3 1 0 2 4 4 4 6 4 4 6 6 7 9 6 5 4 5 4 5 5 5 4 5 5 4 5 4 4 4 4 2 1 5 7 12 11 9 8 8 8 8 8
7 5 3 2 2 2 4 4 4 4 5 5 6 8 6 3 4 5 5 5 5 4 5 5 4 6 5 4 5 5 3 1 1 4 6 12 11 10 8 8 7 7 7
8 8 7 5 4 3 2 2 3 4 5 5 5 6 6 4 4 4 4 5 6 5 5 5 5 5 5 5 4 4 4 4 3 5 5 10 11 10 10 9 8 7 7
6 8 9 8 7 5 4 3 2 2 3 4 5 6 6 5 4 4 4 4 5 5 5 5 6 4 4 3 4 4 3 4 4 6 6 7 11 11 11 10 9 8 8
4 6 8 9 8 8 7 6 4 3 3 3 4 6 7 6 6 5 4 4 4 5 5 5 6 4 4 4 4 4 3 3 3 6 8 6 6 9 11 11 11 10 9
1 2 4 6 7 8 8 7 5 4 4 3 3 5 7 8 7 6 5 5 5 5 4 4 4 3 4 4 4 3 3 2 3 4 6 7 6 6 8 12 12 12 11
2 2 2 3 5 6 6 6 6 5 5 4 4 4 5 7 8 7 5 5 6 5 5 5 4 4 4 4 4 4 4 4 4 3 5 7 8 8 6 10 11 12 12
2 3 3 2 3 3 3 4 4 5 5 5 4 5 6 6 7 7 6 7 6 5 6 5 5 5 4 5 4 4 4 4 4 4 5 5 6 8 8 8 6 8 12
3 3 3 4 3 2 1 2 3 4 4 5 6 7 7 7 7 7 6 7 7 6 7 7 6 6 5 4 3 2 2 3 5 5 5 5 6 7 8 9 7 6 6
4 4 4 4 4 4 2 1 2 2 3 5 5 7 8 8 8 6 7 6 6 6 7 8 7 6 5 5 5 3 2 4 5 6 5 6 7 6 7 9 9 8 7
6 6 5 6 5 5 5 3 3 2 2 2 3 4 7 8 8 8 8 7 7 7 7 8 8 9 7 6 6 6 5 7 4 4 7 7 6 6 6 6 8 9 9
4 4 5 5 5 4 4 3 3 3 3 4 3 3 4 6 8 9 9 9 9 8 8 8 9 7 8 6 5 6 5 4 4 3 3 4 5 5 6 6 6 6 7
4 3 4 5 4 4 4 4 3 4 4 4 4 5 5 4 6 7 8 9 9 8 9 9 9 9 8 8 6 4 6 5 3 3 3 3 3 3 3 4 4 4 5
4 4 4 5 4 5 5 5 4 4 5 5 6 5 4 4 4 5 6 7 8 8 9 10 10 10 10 10 8 6 6 5 6 5 4 3 3 2 1 1 2 3 4
Wind_Direction
124 134 141 138 138 135 133 131 128 123 119 115 108 99 91 82 79 81 85 89 90 92 92 87 84 82 81 82 82 81 80 82 85 85 80 73 72 71 60 41 68 74 73
129 135 139 137 139 138 135 129 121 117 114 110 105 98 88 81 82 93 98 99 98 97 93 88 86 84 83 84 84 83 85 92 100 102 101 87 74 70 63 55 64 69 71
127 134 138 135 138 138 134 128 124 120 116 111 105 98 90 86 89 102 108 104 102 99 93 90 88 86 85 84 83 83 85 92 98 114 148 121 91 73 67 64 67 67 66
127 137 137 133 137 137 134 131 127 122 118 113 107 101 95 94 97 101 108 105 102 98 95 94 91 89 87 86 84 82 80 66 13 320 244 103 88 77 75 74 71 64 60
129 134 128 133 135 136 135 132 129 125 120 115 111 105 100 100 100 99 103 103 101 100 100 98 95 91 88 87 84 79 55 4 344 327 71 79 79 78 74 75 71 67 64
127 120 129 130 132 134 135 134 132 129 125 121 118 113 109 104 100 99 103 104 104 105 105 104 99 93 90 89 84 68 17 349 336 49 68 76 78 81 80 76 73 72 70
122 122 131 128 132 135 137 136 136 134 132 129 127 123 119 112 106 104 107 108 110 111 112 111 106 99 94 91 84 52 350 344 10 77 74 72 79 82 80 79 76 73 70
118 124 128 130 133 136 138 141 142 139 138 137 135 132 128 123 120 116 115 116 118 119 120 118 113 106 99 95 86 32 335 337 40 89 85 77 85 84 81 78 76 74 72
121 126 134 136 136 138 142 144 146 144 143 142 140 132 125 125 129 131 130 131 131 130 128 127 123 118 112 107 101 355 315 325 345 103 98 86 88 86 83 81 78 76 73
123 132 143 148 149 148 147 149 150 149 149 147 141 132 128 131 137 143 145 144 144 143 140 138 135 132 128 127 136 254 297 314 269 105 102 101 96 91 88 85 83 81 78
108 135 150 156 159 162 162 156 152 153 154 151 146 148 148 160 161 163 162 150 154 154 153 152 151 148 143 148 165 224 278 275 151 104 106 113 107 100 95 92 89 87 84
108 116 140 155 161 167 161 151 163 166 163 172 167 167 186 198 179 169 151 153 163 166 167 169 169 171 174 174 185 211 250 252 141 116 128 128 120 114 108 104 100 97 93
186 169 131 150 154 155 140 158 172 172 171 193 185 178 200 209 159 143 148 153 167 177 183 178 180 207 214 186 174 203 233 243 124 122 139 136 133 130 125 121 116 111 104
175 181 200 221 180 169 160 175 175 172 172 186 196 185 193 196 169 162 166 170 180 189 194 180 199 215 215 180 186 205 190 244 121 118 143 142 145 146 143 139 134 129 122
170 176 187 201 204 203 202 202 195 185 176 183 191 194 188 184 185 185 182 176 185 188 190 185 204 206 195 197 205 204 183 200 183 137 145 151 153 158 160 158 156 152 144
177 181 183 192 198 195 204 221 228 223 190 186 183 195 199 192 190 194 194 189 190 191 182 185 202 203 188 188 200 211 215 199 184 145 150 155 161 166 171 173 173 168 161
192 188 184 189 193 193 199 208 219 229 223 205 193 192 199 203 198 197 200 199 195 194 190 187 202 201 185 181 194 206 215 218 188 154 155 157 161 172 179 185 183 179 175
247 209 196 192 192 196 197 199 205 215 225 221 211 202 203 205 203 202 202 208 198 192 191 191 198 194 186 178 186 204 204 204 207 182 161 162 165 171 185 192 190 187 185
282 276 245 205 198 203 200 198 199 202 214 223 225 220 217 213 207 203 205 208 202 198 195 194 193 186 186 189 196 199 197 192 208 207 180 169 169 170 174 192 190 189 190
349 332 318 281 232 222 208 202 198 203 208 213 222 230 231 225 217 210 207 210 207 203 202 195 191 193 189 185 196 200 201 196 197 205 203 183 172 170 171 177 177 187 191
1 346 331 325 311 288 234 213 206 211 214 215 218 225 231 233 230 221 217 213 213 213 208 198 187 197 204 172 159 211 258 227 211 207 202 193 184 177 171 173 176 175 190
17 12 355 342 335 331 320 276 231 226 222 221 220 221 222 226 230 229 223 221 219 221 218 208 200 197 198 180 159 145 223 257 250 221 202 203 195 182 184 179 179 178 180
39 22 357 347 342 339 340 341 332 315 284 260 244 229 222 222 226 227 226 224 222 222 226 220 211 204 205 200 182 169 181 212 223 231 216 207 199 189 190 184 183 179 176
47 21 352 341 334 329 331 325 310 293 279 264 257 250 241 228 225 223 223 223 223 223 226 225 221 216 205 206 212 218 215 178 174 213 253 220 204 197 190 190 186 179 171
51 18 345 336 337 346 342 326 308 294 287 293 294 281 270 255 240 231 226 224 224 225 225 225 223 221 217 212 203 202 230 247 225 169 212 225 219 214 192 184 175 169 162
45 17 349 345 350 356 349 339 324 308 307 310 306 299 291 280 265 245 235 231 227 225 225 225 225 224 224 221 214 202 193 202 209 202 197 184 200 225 176 129 150 151 149